Starlink 11703

operational
NORAD ID: 63759 Int'l Des: 2025-089 Owner: SPXS Country: US Constellation: starlink
LEOCIRCULAR

Über Starlink 11703

Beschreibung wird geladen...

Live-Position

3D-Globus wird geladen...

Nächste Überflüge

Höhenverlauf

Altitude vs Time

uPlot chart will show altitude changes over time

Zweizeiliger Elementsatz

1 63759U 25089J 26037.25840542 -.00005858 00000-0 -42228-4 0 9992
2 63759 42.9977 121.5666 0000774 280.9097 79.1683 15.70823433 45199
Epoch: 6. Feb. 2026 • Age: 6 hours

Aktueller Status

Höhe 357.7 km
Geschwindigkeit 7.70 km/s
Subsatellitenpunkt 31.83°N, 163.01°W
Startdatum 29. Apr. 2025
Alter 0.7 years
Typ internet

Technische Details

Klassifizierung Payload
Masse 960.00 kg
Trockenmasse 910.00 kg
Gesamtmasse 960.00 kg
Länge 0.30 m
Durchmesser 4.10 m
Spannweite 29.00 m
Form Box + pan
Hersteller SPXS
Bus-Typ Starlink V2MD
Phasenstatus In Orbit
Besitzer/Staat SPXS/US

Große Konstellationen

Loading constellations...